RH
81 96 95 84 77 72 71 69 68 60 48 57 59 56 49 42 39 36 33 31 27 28 26 22 20 21 21 21 25 75 88 93 90 91 91 98 93 85 90 96 97 93 89 81
95 95 77 68 65 74 82 85 76 58 48 58 59 61 48 40 36 31 29 27 28 26 24 22 23 23 24 23 23 62 84 96 93 90 86 85 91 92 84 89 96 96 93 85
91 71 64 80 74 82 80 86 78 73 54 55 58 64 54 38 32 29 27 26 24 24 25 21 21 29 27 28 24 57 75 97 92 87 89 86 86 88 89 97 97 97 92 86
83 66 85 89 93 82 93 69 67 70 76 93 58 86 54 41 39 33 29 27 26 24 22 22 23 33 31 28 25 33 66 94 92 89 91 90 92 92 89 88 98 97 90 88
70 67 64 83 76 77 87 66 78 82 80 81 76 90 58 38 40 35 30 29 28 26 22 22 20 33 47 46 42 45 52 77 82 87 81 80 82 88 86 89 95 99 100 95
71 49 56 60 59 80 80 92 92 78 83 96 84 86 70 48 42 35 32 50 54 53 48 49 48 53 60 59 56 54 52 49 50 64 59 63 65 70 88 99 99 100 99 99
73 74 58 55 69 58 88 97 98 99 99 99 84 81 63 46 37 37 46 57 54 50 49 49 49 51 56 58 60 54 53 56 55 46 47 61 63 78 72 91 99 100 100 100
98 92 66 54 70 70 77 90 96 98 98 92 68 98 79 46 40 47 49 44 42 43 42 50 50 53 56 57 59 61 62 65 66 67 70 64 61 60 62 83 99 100 99 98
97 96 96 98 91 84 77 94 82 97 94 99 97 82 56 44 57 52 47 41 41 42 42 44 47 51 51 54 56 54 58 65 68 74 71 80 88 89 83 82 100 100 100 100
99 97 100 94 89 92 99 96 99 98 98 98 98 76 92 69 64 62 68 69 65 59 56 55 52 51 50 50 43 42 44 48 50 57 75 77 78 84 92 100 97 98 99 100
100 100 79 85 99 98 98 99 99 100 100 97 92 99 100 90 81 87 89 83 80 74 71 66 62 57 53 46 43 43 46 43 43 46 48 66 77 77 84 88 95 96 100 99
79 99 99 77 86 79 93 100 99 98 97 98 98 97 100 96 92 88 85 82 82 90 86 80 77 68 57 54 47 44 42 42 48 46 46 46 58 79 81 84 89 89 86 96
74 94 97 87 92 75 100 100 100 100 99 98 96 98 97 97 94 94 95 92 88 85 90 89 82 76 68 58 46 41 39 37 38 45 52 52 47 49 58 77 81 74 73 78
72 99 98 96 91 67 80 99 98 98 98 97 99 100 100 99 96 89 87 86 88 86 78 72 66 52 45 39 37 38 39 36 41 32 38 45 50 56 52 62 77 76 79 78
75 93 76 64 51 52 56 65 85 84 89 95 99 98 93 95 90 84 77 72 66 57 53 52 44 40 42 36 29 28 33 31 46 42 44 48 44 44 54 54 78 84 81 77
52 79 60 59 40 41 58 48 36 47 65 69 73 78 77 84 81 76 72 72 54 45 36 35 29 29 33 28 28 30 32 30 32 32 32 34 42 53 51 50 56 69 79 82
47 67 75 69 44 51 66 61 44 36 42 58 66 48 76 86 79 73 71 61 43 35 29 31 26 25 25 26 24 28 30 28 28 32 31 31 40 37 42 46 56 64 80 80
74 58 72 82 66 78 42 29 26 34 36 37 49 47 51 54 56 57 54 46 34 27 31 31 30 30 26 24 25 25 28 27 28 30 29 30 32 36 34 36 53 56 74 82
36 72 82 86 77 53 39 41 44 46 48 35 39 38 38 43 42 52 45 41 40 34 33 32 28 28 28 29 27 28 26 26 28 30 28 29 29 32 34 40 46 65 84 83
52 62 82 81 79 74 95 59 34 37 80 42 40 44 43 48 75 64 42 42 45 38 32 30 29 27 27 27 27 27 29 30 30 26 25 25 27 28 35 34 45 64 79 77
70 90 83 90 88 69 71 49 39 58 91 52 47 49 48 54 50 42 41 47 45 40 38 38 36 35 34 33 33 36 36 37 30 27 26 24 26 27 28 38 46 70 83 93
73 80 93 93 95 91 67 55 80 88 72 46 46 48 47 45 42 45 46 48 44 46 46 44 44 42 48 51 48 50 50 48 52 50 40 31 29 29 32 37 43 74 84 99
91 90 89 83 95 86 85 61 45 50 53 47 47 46 52 56 53 51 50 48 53 54 56 56 54 57 60 60 61 63 64 64 61 58 58 56 51 35 38 48 60 92 98 99
76 90 90 84 92 94 96 70 60 44 47 45 44 50 54 58 57 58 59 58 58 56 57 58 67 68 66 65 69 72 73 73 73 70 67 67 65 64 59 65 70 92 100 100
73 65 72 91 96 89 76 64 48 47 47 50 49 51 51 51 58 61 63 62 64 60 57 57 64 70 77 77 79 82 83 81 80 82 82 78 72 74 97 100 82 93 93 93
44 36 70 86 57 52 45 44 44 48 47 48 47 50 56 63 68 68 72 68 68 74 74 76 84 92 86 86 89 87 87 90 90 81 78 84 86 79 99 98 98 100 98 97
Wind_Speed
24 20 24 37 34 29 28 27 29 36 13 18 25 37 29 25 27 28 24 23 20 11 10 15 22 25 34 38 33 41 41 41 43 37 37 33 35 39 40 41 43 46 45 44
18 26 37 33 24 31 29 31 37 36 17 22 22 33 27 25 28 22 23 19 11 12 10 10 15 22 29 33 32 42 42 47 47 42 42 43 40 35 40 38 43 43 43 44
30 34 24 31 32 30 34 34 40 31 14 22 23 36 32 28 27 22 19 20 20 19 15 16 14 16 28 31 38 38 42 45 44 42 39 34 33 32 28 34 36 40 46 47
25 30 21 23 27 32 32 36 36 30 20 20 19 20 23 18 26 26 26 25 25 24 21 15 13 10 22 27 36 33 44 44 43 41 37 40 37 31 34 38 38 41 48 51
37 25 25 27 32 28 31 26 28 31 25 22 19 12 35 20 24 21 17 19 20 20 26 22 21 9 8 19 19 22 22 33 37 42 39 40 38 36 34 36 36 39 38 42
38 26 24 29 17 12 12 14 25 31 24 22 28 20 27 15 6 8 4 10 12 14 16 17 17 27 23 26 25 22 17 12 8 22 37 38 35 32 27 31 34 35 36 38
34 38 35 25 26 20 11 10 5 3 5 4 17 20 27 8 12 6 5 15 13 17 18 17 19 17 19 25 27 26 26 26 16 2 6 30 35 37 34 34 35 33 33 37
4 22 21 21 32 21 19 17 10 4 3 3 16 8 8 29 31 12 21 17 17 20 19 18 18 17 19 26 28 30 28 28 30 25 16 6 21 40 35 35 35 38 38 38
9 5 3 10 8 9 31 20 15 12 15 5 3 1 8 7 18 18 17 20 18 17 17 17 16 16 21 24 26 29 27 27 31 31 24 20 12 10 21 31 28 29 32 35
2 6 2 4 5 10 6 9 9 7 3 5 8 9 3 14 16 15 17 17 16 16 17 16 15 14 19 24 26 26 25 25 24 25 26 25 24 18 14 7 19 26 30 31
3 3 6 4 4 2 5 4 5 4 0 6 6 3 6 11 13 15 12 14 13 13 13 12 12 15 19 24 28 26 24 22 23 22 21 21 23 19 16 11 8 8 16 37
5 4 4 3 8 3 2 2 4 3 3 2 4 3 5 10 11 13 9 10 10 11 10 9 9 11 15 18 18 18 20 24 22 21 20 19 15 14 16 14 11 10 10 17
4 2 5 4 1 3 4 4 5 4 2 2 3 1 1 6 6 6 7 6 6 7 6 8 9 8 9 13 12 9 10 12 14 18 20 21 21 17 14 9 10 17 18 19
5 3 6 4 3 6 7 6 4 3 1 3 3 3 3 2 5 3 6 7 5 5 4 4 4 3 6 1 3 4 2 8 8 10 11 13 16 17 16 14 13 13 11 13
2 1 3 9 10 9 9 5 3 1 3 2 1 5 5 7 9 8 7 7 8 7 6 5 4 2 4 5 1 7 7 12 5 8 8 7 13 13 15 15 12 11 14 17
2 2 4 4 10 9 6 10 4 4 2 5 9 2 10 12 5 7 8 7 7 7 4 7 2 3 3 5 3 4 4 7 11 12 13 14 14 7 10 16 17 14 14 14
4 2 4 3 11 10 5 3 2 3 7 1 3 4 9 10 11 5 11 3 7 6 7 6 3 1 3 5 6 7 6 10 10 12 14 14 13 12 14 15 14 14 14 17
2 2 2 3 4 3 5 1 6 16 20 13 14 12 9 11 11 12 10 8 6 6 6 4 0 3 9 11 12 12 13 11 13 15 15 15 15 13 15 14 16 16 17 18
6 4 2 2 3 8 7 6 6 12 16 15 16 16 14 15 14 10 10 8 6 5 4 4 10 14 15 14 14 12 14 15 16 19 21 20 17 19 17 16 13 13 12 17
6 6 4 3 2 3 3 14 15 5 6 10 14 14 13 12 7 3 7 7 9 10 13 12 19 19 20 22 22 22 21 22 22 24 24 25 24 21 20 20 15 14 15 16
2 2 4 2 2 5 6 8 12 4 1 4 10 9 10 6 3 3 7 7 7 9 13 20 21 18 18 20 24 21 22 20 27 26 27 28 28 25 24 19 17 13 13 14
2 2 1 1 2 3 10 6 4 3 2 6 8 7 6 5 5 5 6 7 7 7 12 17 16 17 19 22 20 20 20 23 26 27 28 27 28 29 27 23 20 16 13 14
5 3 2 3 2 4 5 5 4 5 6 7 7 8 8 7 5 5 5 5 5 6 11 16 18 17 18 18 19 21 25 26 26 28 27 27 28 27 28 25 21 17 12 11
3 6 4 1 5 9 11 7 14 6 8 9 8 9 8 7 8 7 7 7 5 3 7 14 15 16 18 19 21 23 27 28 29 29 29 28 27 27 28 28 23 18 15 13
4 2 2 4 5 3 7 2 1 8 9 11 9 6 6 6 7 9 9 10 9 11 15 17 19 19 21 26 28 27 28 28 28 29 30 30 27 25 21 25 29 23 17 13
2 2 3 2 3 3 1 6 7 9 7 6 4 5 8 10 7 7 6 7 9 12 16 16 15 18 23 26 29 30 30 29 29 29 28 27 26 23 20 17 15 14 13 9
Wind_Direction
222 226 232 225 226 231 239 242 250 251 214 220 233 253 252 250 251 256 249 245 239 212 229 224 222 223 201 200 185 182 179 181 185 185 184 183 187 192 187 191 195 199 195 197
236 230 226 235 229 226 226 233 241 259 228 208 231 252 253 243 242 245 246 250 243 239 220 225 233 213 193 192 195 179 180 178 182 186 191 190 189 193 196 193 192 196 193 195
239 242 229 233 234 232 223 227 238 244 243 239 254 267 259 253 252 249 249 254 256 247 241 233 229 207 187 186 199 179 181 180 183 183 184 193 193 196 194 197 189 190 195 197
245 244 239 251 266 235 226 223 236 239 238 238 214 259 251 251 245 240 246 246 248 245 237 226 216 197 186 187 194 182 182 182 185 182 183 179 184 188 198 199 197 190 197 199
243 242 230 236 235 232 250 231 234 243 230 243 222 237 265 231 237 235 223 231 238 242 231 230 224 154 114 137 133 119 146 186 188 188 188 191 191 196 192 195 198 199 196 196
254 251 240 239 246 216 264 292 308 234 225 228 219 215 259 236 231 237 143 74 66 62 79 74 81 89 72 66 66 59 77 87 141 207 219 212 206 200 185 181 188 193 197 200
241 245 246 252 253 254 224 224 254 236 199 238 215 216 235 218 223 208 97 96 82 67 62 70 72 73 66 56 50 45 39 39 56 93 200 228 216 214 212 184 185 188 191 196
249 248 252 242 229 245 226 216 231 263 207 193 187 208 224 237 243 110 104 91 77 75 70 66 66 62 62 59 49 42 37 32 37 41 45 357 233 214 219 199 193 190 192 198
355 346 315 7 313 282 229 234 211 239 233 265 232 204 280 70 80 90 76 78 72 68 68 68 62 64 63 55 50 50 41 35 31 33 39 49 59 186 198 204 191 198 200 200
328 290 269 264 351 33 55 307 199 216 243 202 195 210 137 80 75 61 64 61 55 52 55 54 49 47 54 61 52 43 41 40 31 34 39 40 47 54 77 177 210 212 209 202
234 238 288 206 38 299 28 342 29 305 282 237 215 119 342 87 80 67 44 56 50 44 34 32 37 41 44 48 46 40 30 33 34 28 26 36 39 36 47 49 26 67 228 210
11 297 281 11 93 70 192 224 164 146 7 110 326 32 335 74 75 77 54 47 41 54 32 15 24 23 21 31 38 32 31 26 23 17 18 23 30 31 33 24 357 339 338 329
330 322 318 359 35 46 24 33 43 22 340 85 106 79 60 83 73 71 86 46 34 25 31 15 10 27 19 356 18 17 29 22 13 12 11 4 9 9 12 347 343 356 344 332
303 26 8 22 335 293 350 8 50 54 330 63 11 117 158 118 120 112 142 158 183 166 162 178 171 198 138 206 21 306 33 33 24 11 8 357 353 352 348 350 338 337 334 332
71 30 345 334 326 4 325 2 5 27 138 88 215 184 187 167 200 208 201 187 175 157 175 192 203 214 172 179 68 347 30 7 340 348 352 349 350 339 338 339 346 328 332 336
290 252 4 340 24 357 304 302 338 251 277 148 125 126 203 202 218 203 217 245 128 133 143 125 142 23 88 90 58 13 7 355 332 331 337 330 323 319 334 321 324 316 318 324
301 25 21 356 350 332 350 261 223 283 186 77 21 358 150 190 208 230 216 127 91 93 89 120 123 8 320 296 281 257 255 287 298 294 313 316 320 322 323 323 314 319 310 313
202 64 35 289 355 39 282 309 359 63 36 97 99 82 89 94 90 70 70 86 75 77 55 66 122 247 261 270 271 273 252 257 265 266 278 282 293 286 305 311 298 303 304 305
209 128 34 68 325 280 352 24 37 80 48 41 60 53 70 81 68 35 27 50 57 37 8 320 315 321 320 305 297 282 256 257 253 253 265 264 271 279 280 281 283 276 262 282
65 70 121 46 358 315 27 331 347 101 66 46 51 54 63 59 57 326 1 16 17 13 3 351 345 339 335 333 330 320 307 288 263 263 261 264 260 266 268 272 271 260 257 281
12 24 165 150 213 300 345 331 316 45 160 10 69 61 55 63 120 343 19 24 12 0 350 344 337 327 327 329 326 321 316 302 302 294 277 270 265 257 264 250 263 251 259 278
143 96 79 142 204 292 338 360 61 69 302 37 45 47 48 41 19 27 17 360 345 347 353 341 330 323 336 343 343 331 324 326 331 325 306 286 272 257 248 241 251 242 256 278
31 2 277 130 198 232 307 313 94 105 55 35 37 24 29 28 12 2 334 332 14 3 352 333 321 320 321 329 331 319 313 317 316 311 306 303 307 274 255 226 223 227 244 251
77 28 353 3 37 17 9 360 30 29 52 47 44 35 26 9 357 354 349 324 313 338 330 317 323 311 306 314 315 307 305 305 302 295 290 288 289 291 258 228 222 225 227 229
229 188 113 112 89 200 194 199 193 61 50 50 31 10 342 343 9 12 357 352 356 346 334 325 313 311 316 318 309 306 302 299 293 288 284 280 274 267 249 234 223 223 234 239
204 95 95 201 187 118 124 64 67 73 57 60 1 349 34 39 15 360 338 328 327 322 320 316 316 313 310 308 304 303 300 293 285 279 274 270 268 261 228 212 213 220 234 243